time_stamp(utc),avg(mph),gust(mph),direction(deg),12m_air_temp(f),sonic_u(cm/s),sonic_v(cm/s),sonic_w(cm/s),pressure,2m_air_temp(f),pyranometer(W/m^2)
"2021-08-06 00:02:39+00",9.4,12.4,,71.8,-39,-399,-21,1018.79,71.6,0
"2021-08-06 00:07:39+00",9.2,12.2,,71.7,-51,-388,-14,1018.74,71.5,0
"2021-08-06 00:12:39+00",7.0,9.0,,71.7,-24,-288,15,1018.72,71.5,0
"2021-08-06 00:17:39+00",8.2,11.2,,71.7,-54,-349,-2,1018.81,71.5,0
"2021-08-06 00:22:39+00",7.2,10.2,,71.8,-40,-285,0,1018.9,71.4,0
"2021-08-06 00:27:39+00",7.9,10.9,,71.8,-28,-307,0,1018.93,71.4,0
"2021-08-06 00:32:39+00",7.1,10.1,,71.8,-16,-286,3,1019.02,71.4,0
"2021-08-06 00:37:39+00",8.2,11.2,,71.8,-64,-328,-37,1019.07,71.3,0
"2021-08-06 00:42:39+00",6.4,8.4,,71.7,-62,-243,-43,1019.14,71.3,0
"2021-08-06 00:47:39+00",8.7,10.7,,71.7,-71,-343,-83,1019.1,71.3,0
"2021-08-06 00:52:39+00",8.5,10.5,,71.7,-70,-324,-73,1019.19,71.3,0
"2021-08-06 00:57:39+00",8.1,10.1,,71.7,-45,-311,-87,1019.19,71.3,0
"2021-08-06 01:02:39+00",7.8,9.8,,71.6,-40,-297,-67,1019.27,71.2,0
"2021-08-06 01:07:39+00",8.5,11.5,,71.6,-54,-329,-82,1019.35,71.1,0
"2021-08-06 01:12:39+00",8.9,11.9,,71.5,-36,-363,-71,1019.36,71.1,0
"2021-08-06 01:17:39+00",8.3,11.3,,71.5,-35,-344,-50,1019.45,71.1,0
"2021-08-06 01:22:39+00",8.1,11.1,,71.5,-42,-305,-58,1019.47,71,0
"2021-08-06 01:27:39+00",7.9,9.9,,71.4,-52,-318,-61,1019.57,71,0
"2021-08-06 01:32:39+00",7.5,9.5,,71.3,-93,-275,-71,1019.59,70.9,0
"2021-08-06 01:37:39+00",7.5,10.5,,71.2,-114,-288,-45,1019.57,70.8,0
"2021-08-06 01:42:39+00",8.8,9.8,,71.3,-192,-347,-64,1019.59,70.7,0
"2021-08-06 01:47:39+00",8.7,10.7,,71.4,-239,-344,-65,1019.7,70.7,0
"2021-08-06 01:52:39+00",7.8,9.8,,71.5,-232,-312,-63,1019.72,70.7,0
"2021-08-06 01:57:39+00",8.9,10.9,,71.7,-306,-324,-63,1019.77,70.7,0
"2021-08-06 02:02:39+00",8.3,10.3,,71.7,-323,-286,-68,1019.79,70.8,0
"2021-08-06 02:07:39+00",8.6,9.6,,71.6,-311,-326,-76,1019.94,70.8,0
"2021-08-06 02:12:39+00",11.2,14.2,,71.8,-359,-478,-11,1019.97,70.9,0
"2021-08-06 02:17:39+00",11.6,12.6,,71.8,-313,-514,-32,1019.97,71,0
"2021-08-06 02:22:39+00",13.9,16.9,,71.7,-407,-478,-52,1020.02,71.1,0
"2021-08-06 02:27:39+00",11.7,13.7,,71.7,-400,-330,-13,1020.06,71.1,0
"2021-08-06 02:32:39+00",13.9,15.9,,71.6,-470,-439,-18,1020.03,71.1,0
"2021-08-06 02:37:39+00",12.0,14.0,,71.6,-389,-424,-18,1019.99,71,0
"2021-08-06 02:42:39+00",12.5,13.5,,71.7,-418,-430,-17,1020,71,0
"2021-08-06 02:47:39+00",14.2,17.2,,71.8,-436,-441,-11,1019.96,70.9,0
"2021-08-06 02:52:39+00",14.0,16.0,,71.8,-461,-420,-30,1019.9,70.9,0
"2021-08-06 02:57:39+00",13.7,15.7,,71.7,-440,-405,-36,1019.81,70.9,0
"2021-08-06 03:02:39+00",14.0,17.0,,71.8,-456,-399,-21,1020,70.8,0
"2021-08-06 03:07:39+00",13.5,15.5,,71.8,-441,-395,-31,1019.99,70.9,0
"2021-08-06 03:12:39+00",14.7,17.7,,71.9,-463,-431,-12,1020.02,70.9,0
"2021-08-06 03:17:39+00",12.7,14.7,,71.8,-400,-384,-18,1020.1,70.9,0
"2021-08-06 03:22:39+00",10.4,12.4,,71.7,-310,-349,-10,1020.06,70.9,0
"2021-08-06 03:27:39+00",9.9,11.9,,71.6,-287,-422,-30,1020.12,70.7,0
"2021-08-06 03:32:39+00",9.2,11.2,,71.5,-262,-355,-35,1020.12,70.6,0
"2021-08-06 03:37:39+00",8.8,11.8,,71.4,-250,-358,-40,1020.18,70.5,0
"2021-08-06 03:42:39+00",8.5,10.5,,71.5,-251,-339,-35,1020.12,70.4,0
"2021-08-06 03:47:39+00",7.6,9.6,,71.4,-220,-336,-36,1020.04,70.3,0
"2021-08-06 03:52:39+00",9.6,11.6,,71.5,-282,-360,-45,1020.18,70.3,0
"2021-08-06 03:57:39+00",8.8,10.8,,71.7,-262,-376,-43,1020.1,70.3,0
"2021-08-06 04:02:39+00",9.8,11.8,,71.6,-308,-384,-50,1020.1,70.3,0
"2021-08-06 04:07:39+00",10.1,12.1,,71.7,-309,-388,-44,1020.11,70.4,0
"2021-08-06 04:12:39+00",10.5,12.5,,71.6,-314,-334,-49,1020.13,70.5,0
"2021-08-06 04:17:39+00",11.0,13.0,,71.5,-331,-320,-54,1020.16,70.4,0
"2021-08-06 04:22:39+00",10.7,11.7,,71.4,-329,-331,-30,1020.21,70.4,0
"2021-08-06 04:27:39+00",11.7,13.7,,71.3,-369,-330,-50,1020.21,70.4,0
"2021-08-06 04:32:39+00",10.1,12.1,,71.2,-322,-270,-35,1020.28,70.3,0
"2021-08-06 04:37:39+00",9.6,11.6,,71.1,-304,-248,-51,1020.28,70.2,0
"2021-08-06 04:42:39+00",8.6,10.6,,71.1,-256,-208,-73,1020.34,70.2,0
"2021-08-06 04:47:39+00",8.0,9.0,,71.1,-271,-187,-54,1020.36,70,0
"2021-08-06 04:52:39+00",7.3,8.3,,71,-248,-145,-70,1020.31,69.9,0
"2021-08-06 04:57:39+00",9.1,10.1,,71,-326,-190,-78,1020.34,69.6,0
"2021-08-06 05:02:39+00",10.0,11.0,,71.1,-335,-232,-73,1020.27,69.5,0
"2021-08-06 05:07:39+00",9.2,11.2,,71.1,-275,-224,-76,1020.3,69.5,0
"2021-08-06 05:12:39+00",10.0,13.0,,71.1,-316,-244,-70,1020.24,69.5,0
"2021-08-06 05:17:39+00",8.2,10.2,,71,-280,-216,-39,1020.17,69.5,0
"2021-08-06 05:22:39+00",10.2,11.2,,71.1,-355,-234,-59,1020.25,69.6,0
"2021-08-06 05:27:39+00",10.0,12.0,,71.2,-376,-228,-64,1020.12,69.6,0
"2021-08-06 05:32:39+00",10.9,12.9,,71.2,-406,-260,-55,1020.21,69.7,0
"2021-08-06 05:37:39+00",9.8,11.8,,71.2,-364,-221,-60,1020.12,69.7,0
"2021-08-06 05:42:39+00",8.8,10.8,,71,-320,-170,-52,1020.12,69.7,0
"2021-08-06 05:47:39+00",8.8,9.8,,70.8,-331,-164,-65,1020.13,69.7,0
"2021-08-06 05:52:39+00",8.2,9.2,,70.7,-291,-107,-54,1020.17,69.6,0
"2021-08-06 05:57:39+00",8.3,9.3,,70.5,-327,-138,-40,1020.21,69.5,0
"2021-08-06 06:02:39+00",8.0,10.0,,70.4,-301,-149,-47,1020.18,69.4,0
"2021-08-06 06:07:39+00",6.5,7.5,,70.4,-248,-138,-36,1020.21,69.3,0
"2021-08-06 06:12:39+00",6.4,7.4,,70.3,-239,-158,-41,1020.28,69.2,0
"2021-08-06 06:17:39+00",7.2,8.2,,70.2,-282,-163,-45,1020.34,69.1,0
"2021-08-06 06:22:39+00",5.9,6.9,,70.2,-215,-156,-45,1020.3,69,0
"2021-08-06 06:27:39+00",6.2,7.2,,70.2,-225,-168,-48,1020.34,68.8,0
"2021-08-06 06:32:39+00",7.1,8.1,,70.2,-251,-183,-54,1020.3,68.7,0
"2021-08-06 06:37:39+00",7.5,8.5,,70.2,-231,-242,-52,1020.29,68.7,0
"2021-08-06 06:42:39+00",6.9,8.9,,70.2,-196,-255,-31,1020.38,68.6,0
"2021-08-06 06:47:39+00",3.8,4.8,,69.8,-59,-175,-21,1020.3,68.5,0
"2021-08-06 06:52:39+00",3.5,5.5,,69.2,2,-113,26,1020.31,68.3,0
"2021-08-06 06:57:39+00",6.2,7.2,,68.7,-15,-45,-5,1020.35,68,0
"2021-08-06 07:02:39+00",6.1,6.1,,69,-81,-142,-26,1020.35,67.8,0
"2021-08-06 07:07:39+00",4.9,5.9,,69,-212,-208,-58,1020.29,67.7,0
"2021-08-06 07:12:39+00",5.6,6.6,,69,-238,-203,-63,1020.34,67.6,0
"2021-08-06 07:17:39+00",6.4,7.4,,69.1,-282,-146,-42,1020.31,67.6,0
"2021-08-06 07:22:39+00",6.8,6.8,,69.3,-301,-151,-45,1020.31,67.6,0
"2021-08-06 07:27:39+00",7.6,7.6,,69.5,-280,-181,-62,1020.32,67.7,0
"2021-08-06 07:32:39+00",5.8,6.8,,69.7,-244,-207,-60,1020.26,67.7,0
"2021-08-06 07:37:39+00",7.1,8.1,,69.6,-275,-203,-69,1020.36,67.8,0
"2021-08-06 07:42:39+00",6.5,7.5,,69.6,-256,-158,-51,1020.32,67.9,0
"2021-08-06 07:47:39+00",7.1,8.1,,69.6,-287,-173,-55,1020.35,67.9,0
"2021-08-06 07:52:39+00",4.9,5.9,,69.5,-136,-62,-18,1020.4,67.9,0
"2021-08-06 07:57:39+00",7.3,8.3,,69.6,-35,-44,-64,1020.41,67.9,0
"2021-08-06 08:02:39+00",6.8,7.8,,69.9,-153,-82,-36,1020.5,68,0
"2021-08-06 08:07:39+00",6.5,8.5,,69.8,-173,-123,-51,1020.48,68,0
"2021-08-06 08:12:39+00",7.7,8.7,,69.8,-151,-89,-74,1020.48,68.1,0
"2021-08-06 08:17:39+00",7.0,8.0,,69.8,-291,-162,18,1020.49,68.1,0
"2021-08-06 08:22:39+00",7.9,8.9,,69.8,-281,-229,29,1020.49,68.1,0
"2021-08-06 08:27:39+00",6.7,7.7,,69.7,-297,-117,36,1020.56,68.1,0
"2021-08-06 08:32:39+00",6.5,7.5,,69.6,-288,-131,41,1020.67,68.1,0
"2021-08-06 08:37:39+00",6.5,7.5,,69.5,-280,-134,36,1020.7,68,0
"2021-08-06 08:42:39+00",7.5,8.5,,69.4,-301,-106,49,1020.74,68,0
"2021-08-06 08:47:39+00",7.4,8.4,,69.4,-305,-132,50,1020.74,68,0
"2021-08-06 08:52:39+00",8.3,9.3,,69.5,-304,-78,54,1020.65,68,0
"2021-08-06 08:57:39+00",7.1,8.1,,69.5,-226,-60,33,1020.58,68.2,0
"2021-08-06 09:02:39+00",7.9,8.9,,69.6,-322,-77,-38,1020.62,68.2,0
"2021-08-06 09:07:39+00",7.7,9.7,,69.5,-290,-177,-4,1020.58,68.2,0
"2021-08-06 09:12:39+00",7.3,8.3,,69.4,-304,-69,-44,1020.61,68.2,0
"2021-08-06 09:17:39+00",6.8,7.8,,69.5,-298,-27,-45,1020.6,68.2,0
"2021-08-06 09:22:39+00",6.3,6.3,,69.4,-283,4,-40,1020.61,68.2,0
"2021-08-06 09:27:39+00",6.2,7.2,,69.3,-277,-1,-40,1020.58,68.1,0
"2021-08-06 09:32:39+00",6.7,7.7,,69.2,-298,-19,-44,1020.65,68,0
"2021-08-06 09:37:39+00",7.4,8.4,,69.2,-331,-7,-52,1020.79,68,0
"2021-08-06 09:42:39+00",6.9,7.9,,69.2,-309,-6,-45,1020.78,67.9,0
"2021-08-06 09:47:39+00",6.4,6.4,,69.3,-289,-40,-29,1020.78,67.9,0
"2021-08-06 09:52:39+00",5.9,6.9,,69.3,-272,-16,-25,1020.75,67.7,0
"2021-08-06 09:57:39+00",5.9,6.9,,69.2,-268,-11,-12,1020.85,67.7,0
"2021-08-06 10:02:39+00",5.3,6.3,,69.4,-208,5,41,1020.84,67.6,0
"2021-08-06 10:07:39+00",6.8,7.8,,69.5,-288,-48,-2,1020.96,67.5,0
"2021-08-06 10:12:39+00",5.9,6.9,,69.4,-232,-92,-6,1020.92,67.5,0
"2021-08-06 10:17:39+00",7.0,7.0,,69.5,-269,-107,5,1021,67.4,0
"2021-08-06 10:22:39+00",5.6,6.6,,69.4,-222,-99,1,1021.14,67.3,0
"2021-08-06 10:27:39+00",4.5,5.5,,69.5,-135,-136,8,1021.09,67.3,0
"2021-08-06 10:32:39+00",5.9,6.9,,69.3,-101,-231,-5,1021,67.5,0
"2021-08-06 10:37:39+00",6.0,7.0,,69.2,-131,-234,-4,1021.05,67.6,0
"2021-08-06 10:42:39+00",5.8,6.8,,69.3,-132,-219,1,1021.13,67.8,0
"2021-08-06 10:47:39+00",6.0,7.0,,69.2,-97,-239,-8,1021.13,68.1,0
"2021-08-06 10:52:39+00",6.4,7.4,,69.2,-63,-267,-12,1021.16,68.2,0
"2021-08-06 10:57:39+00",5.9,6.9,,69,-107,-233,-2,1021.25,68.4,0
"2021-08-06 11:02:39+00",5.0,6.0,,69.2,-180,-135,4,1021.23,68.8,0
"2021-08-06 11:07:39+00",4.7,5.7,,69.4,-157,-126,6,1021.25,69.2,0
"2021-08-06 11:12:39+00",5.2,6.2,,69.6,-165,-159,15,1021.26,69.6,0
"2021-08-06 11:17:39+00",5.3,6.3,,69.7,-163,-174,8,1021.3,69.9,0
"2021-08-06 11:22:39+00",6.3,7.3,,70,-181,-213,0,1021.28,70.4,0
"2021-08-06 11:27:39+00",7.1,7.1,,70.1,-225,-205,0,1021.22,70.8,0
"2021-08-06 11:32:39+00",7.5,8.5,,70.2,-212,-252,-13,1021.25,71.2,0
"2021-08-06 11:37:39+00",5.9,6.9,,70.3,-162,-212,15,1021.25,71.5,0
"2021-08-06 11:42:39+00",6.0,7.0,,70.4,-236,-127,29,1021.27,71.9,0
"2021-08-06 11:47:39+00",5.6,6.6,,70.5,-208,-148,8,1021.3,72.5,0
"2021-08-06 11:52:39+00",6.3,7.3,,70.6,-246,-110,0,1021.27,72.9,0
"2021-08-06 11:57:39+00",6.1,7.1,,70.8,-237,-98,8,1021.22,73.5,0
"2021-08-06 12:02:39+00",7.3,8.3,,70.9,-288,-98,0,1021.33,74,0
"2021-08-06 12:07:39+00",6.9,8.9,,71.1,-267,-103,3,1021.33,74.4,0
"2021-08-06 12:12:39+00",6.3,7.3,,71.2,-261,-34,17,1021.27,74.7,0
"2021-08-06 12:17:39+00",7.1,8.1,,71.5,-295,-76,7,1021.28,75,0
"2021-08-06 12:22:39+00",6.3,7.3,,71.6,-256,-121,-1,1021.31,75.3,0
"2021-08-06 12:27:39+00",6.0,7.0,,71.7,-231,-93,19,1021.22,75.7,0
"2021-08-06 12:32:39+00",5.6,6.6,,71.9,-214,-85,52,1021.32,76.2,0
"2021-08-06 12:37:39+00",6.9,7.9,,72.1,-271,-136,13,1021.32,76.5,0
"2021-08-06 12:42:39+00",6.8,7.8,,72.3,-287,-84,5,1021.36,76.9,0
"2021-08-06 12:47:39+00",5.9,6.9,,72.6,-242,-82,34,1021.37,77.3,0
"2021-08-06 12:52:39+00",6.3,7.3,,72.7,-187,-194,8,1021.44,77.4,0
"2021-08-06 12:57:39+00",5.7,6.7,,72.9,-146,-207,8,1021.44,77,0
"2021-08-06 13:02:39+00",4.3,5.3,,73.1,-158,-101,6,1021.47,77.4,0
"2021-08-06 13:07:39+00",3.3,4.3,,73.5,-75,-106,-5,1021.39,77.4,0
"2021-08-06 13:12:39+00",3.2,4.2,,73.8,-90,-102,13,1021.45,77.3,0
"2021-08-06 13:17:39+00",3.4,4.4,,74,-54,-126,-9,1021.48,77.9,0
"2021-08-06 13:22:39+00",2.7,3.7,,74.6,-24,-100,31,1021.46,78.1,0
"2021-08-06 13:27:39+00",4.3,5.3,,74.9,-89,-163,-5,1021.58,77.9,0
"2021-08-06 13:32:39+00",4.7,5.7,,75,-144,-129,3,1021.64,78.2,0
"2021-08-06 13:37:39+00",3.9,4.9,,75.3,-41,-155,1,1021.61,78.5,0
"2021-08-06 13:42:39+00",3.4,5.4,,75.6,-92,-108,23,1021.63,78.5,0
"2021-08-06 13:47:39+00",4.6,6.6,,75.8,-121,-159,9,1021.56,79.3,0
"2021-08-06 13:52:39+00",6.1,7.1,,76.1,-136,-229,-30,1021.61,79.4,0
"2021-08-06 13:57:39+00",5.8,7.8,,76.2,-82,-220,-13,1021.59,79.4,0
"2021-08-06 14:02:39+00",4.8,6.8,,76.6,-58,-162,42,1021.62,79.5,0
"2021-08-06 14:07:39+00",6.7,7.7,,76.8,-195,-214,9,1021.62,80.2,0
"2021-08-06 14:12:39+00",4.5,6.5,,76.8,-127,-141,-15,1021.63,80.5,0
"2021-08-06 14:17:39+00",5.0,6.0,,77.5,-19,-197,-27,1021.52,80.2,0
"2021-08-06 14:22:39+00",4.8,6.8,,77.9,31,-183,22,1021.6,80.5,0
"2021-08-06 14:27:39+00",7.2,9.2,,78.2,111,-288,-8,1021.73,80.4,0
"2021-08-06 14:32:39+00",7.4,9.4,,76.7,78,-284,-9,1021.75,79.1,0
"2021-08-06 14:37:39+00",4.7,5.7,,77.7,-43,-185,-11,1021.67,79.7,0
"2021-08-06 14:42:39+00",4.1,5.1,,78.5,66,-160,-2,1021.69,80.2,0
"2021-08-06 14:47:39+00",2.9,4.9,,78.7,-6,-88,67,1021.66,80.9,0
"2021-08-06 14:52:39+00",6.9,7.9,,78.8,117,-267,-13,1021.64,81,0
"2021-08-06 14:57:39+00",9.1,10.1,,77.6,187,-346,-15,1021.67,80.5,0
"2021-08-06 15:02:39+00",9.1,10.1,,76.7,153,-360,-16,1021.69,79.3,0
"2021-08-06 15:07:39+00",10.1,12.1,,76.1,160,-388,-2,1021.63,78.4,0
"2021-08-06 15:12:39+00",9.5,10.5,,76,172,-357,-3,1021.66,78.5,0
"2021-08-06 15:17:39+00",8.6,11.6,,75.9,81,-355,1,1021.57,78.1,0
"2021-08-06 15:22:39+00",11.9,13.9,,75.7,97,-508,-18,1021.67,78,0
"2021-08-06 15:27:39+00",11.0,13.0,,76.2,91,-465,-18,1021.65,78.1,0
"2021-08-06 15:32:39+00",11.2,13.2,,76.4,138,-461,-17,1021.62,78.5,0
"2021-08-06 15:37:39+00",10.5,13.5,,76.4,111,-434,2,1021.65,78.7,0
"2021-08-06 15:42:39+00",11.1,13.1,,76.3,81,-457,-24,1021.58,78.3,0
"2021-08-06 15:47:39+00",10.3,13.3,,76.3,96,-426,-20,1021.53,78.2,0
"2021-08-06 15:52:39+00",9.8,11.8,,76.8,74,-401,3,1021.5,78.7,0
"2021-08-06 15:57:39+00",11.7,13.7,,76.7,73,-488,-23,1021.49,78.5,0
"2021-08-06 16:02:39+00",11.9,14.9,,76.4,147,-488,20,1021.48,78.7,0
"2021-08-06 16:07:39+00",11.6,13.6,,76,96,-498,-16,1021.56,78.3,0
"2021-08-06 16:12:39+00",10.8,13.8,,76.5,119,-451,10,1021.58,78.6,0
"2021-08-06 16:17:39+00",11.8,14.8,,76,103,-515,-14,1021.57,78.3,0
"2021-08-06 16:22:39+00",10.6,13.6,,76.1,131,-433,3,1021.54,78.3,0
"2021-08-06 16:27:39+00",9.3,13.3,,76.6,50,-354,40,1021.58,78.7,0
"2021-08-06 16:32:39+00",13.2,16.2,,76.1,163,-539,0,1021.48,78.6,0
"2021-08-06 16:37:39+00",14.3,17.3,,75.7,87,-610,-37,1021.56,77.9,0
"2021-08-06 16:42:39+00",15.9,17.9,,75.4,110,-690,-29,1021.56,77.5,0
"2021-08-06 16:47:39+00",14.8,16.8,,76,109,-626,-27,1021.43,77.9,0
"2021-08-06 16:52:39+00",14.3,16.3,,76,119,-606,-30,1021.53,77.7,0
"2021-08-06 16:57:39+00",11.7,15.7,,76.9,81,-480,8,1021.36,78.8,0
"2021-08-06 17:02:39+00",14.1,16.1,,76.7,85,-598,-30,1021.24,78.4,0
"2021-08-06 17:07:39+00",12.2,16.2,,77.3,46,-517,-18,1021.17,79.1,0
"2021-08-06 17:12:39+00",10.9,15.9,,77.8,11,-475,-3,1021.19,79.5,0
"2021-08-06 17:17:39+00",10.2,15.2,,78.5,43,-412,-1,1021.13,79.9,0
"2021-08-06 17:22:39+00",12.8,16.8,,78.7,-4,-553,-37,1021.1,80.1,0
"2021-08-06 17:27:39+00",10.3,14.3,,78.4,16,-449,14,1021.02,79.9,0
"2021-08-06 17:32:39+00",14.6,17.6,,78.7,10,-626,-51,1020.92,80.2,0
"2021-08-06 17:37:39+00",14.3,17.3,,78.3,92,-608,-32,1020.95,80,0
"2021-08-06 17:42:39+00",12.3,16.3,,78.2,121,-535,-16,1020.87,80,0
"2021-08-06 17:47:39+00",11.2,15.2,,78.7,88,-474,7,1020.73,80.5,0
"2021-08-06 17:52:39+00",12.3,15.3,,79,97,-514,-7,1020.67,80.8,0
"2021-08-06 17:57:39+00",12.3,17.3,,78.9,47,-501,-17,1020.71,80.7,0
"2021-08-06 18:02:39+00",13.4,15.4,,79,98,-588,-18,1020.71,80.8,0
"2021-08-06 18:07:39+00",11.9,14.9,,79.9,123,-520,-21,1020.7,81.7,0
"2021-08-06 18:12:39+00",10.9,13.9,,79.6,115,-464,2,1020.76,81.8,0
"2021-08-06 18:17:39+00",12.7,16.7,,79.3,128,-551,-22,1020.68,81.4,0
"2021-08-06 18:22:39+00",8.9,15.9,,80,53,-371,35,1020.65,81.8,0
"2021-08-06 18:27:39+00",9.3,12.3,,80.7,24,-369,25,1020.67,82.3,0
"2021-08-06 18:32:39+00",11.3,15.3,,81.6,-43,-474,-11,1020.69,83.2,0
"2021-08-06 18:37:39+00",12.4,15.4,,81.4,-7,-520,-14,1020.52,83,0
"2021-08-06 18:42:39+00",10.6,14.6,,81.3,13,-461,-15,1020.58,82.7,0
"2021-08-06 18:47:39+00",10.6,13.6,,81.2,52,-461,-4,1020.6,82.8,0
"2021-08-06 18:52:39+00",7.8,11.8,,82.2,-42,-311,50,1020.47,83.7,0
"2021-08-06 18:57:39+00",11.2,14.2,,81.9,23,-443,-9,1020.41,83.6,0
"2021-08-06 19:02:39+00",12.8,15.8,,82.7,-107,-547,9,1020.32,84.2,0
"2021-08-06 19:07:39+00",14.1,18.1,,82.7,-184,-557,18,1020.23,84.2,0
"2021-08-06 19:12:39+00",9.8,12.8,,83.1,-62,-411,-1,1020.14,84.5,0
"2021-08-06 19:17:39+00",9.3,10.3,,82.1,-13,-377,38,1020.17,83.6,0
"2021-08-06 19:22:39+00",10.7,16.7,,83,-52,-427,4,1020.07,84.4,0
"2021-08-06 19:27:39+00",11.4,15.4,,82.6,18,-499,-23,1020.1,84,0
"2021-08-06 19:32:39+00",9.2,12.2,,82.2,-48,-369,14,1020.18,83.5,0
"2021-08-06 19:37:39+00",12.5,15.5,,81.8,12,-538,-29,1020.1,83,0
"2021-08-06 19:42:39+00",9.5,13.5,,81.9,-55,-382,21,1020.02,83.2,0
"2021-08-06 19:47:39+00",10.8,15.8,,82.3,-67,-412,-2,1019.96,83.5,0
"2021-08-06 19:52:39+00",10.5,13.5,,82.4,-11,-443,-14,1019.92,83.8,0
"2021-08-06 19:57:39+00",11.8,15.8,,83.1,-83,-503,-4,1019.87,84.4,0
"2021-08-06 20:02:39+00",13.3,17.3,,83.5,-107,-566,12,1019.78,84.9,0
"2021-08-06 20:07:39+00",12.9,15.9,,81.9,164,-538,-5,1019.66,84.2,0
"2021-08-06 20:12:39+00",14.6,17.6,,79.7,128,-629,-19,1019.59,81.6,0
"2021-08-06 20:17:39+00",14.5,16.5,,78.8,99,-618,-11,1019.63,80.3,0
"2021-08-06 20:22:39+00",10.5,13.5,,78.8,62,-434,-6,1019.71,79.9,0
"2021-08-06 20:27:39+00",12.2,16.2,,79.3,99,-505,-13,1019.72,80.4,0
"2021-08-06 20:32:39+00",11.4,15.4,,79.8,63,-487,-8,1019.66,80.9,0
"2021-08-06 20:37:39+00",9.8,14.8,,79.7,-14,-418,-17,1019.61,80.8,0
"2021-08-06 20:42:39+00",13.7,17.7,,80.2,-83,-580,-17,1019.66,81,0
"2021-08-06 20:47:39+00",11.2,13.2,,80.2,-16,-488,-31,1019.66,80.9,0
"2021-08-06 20:52:39+00",8.7,11.7,,80.6,-32,-365,38,1019.74,81.5,0
"2021-08-06 20:57:39+00",9.3,14.3,,80.7,48,-384,4,1019.64,81.7,0
"2021-08-06 21:02:39+00",8.4,11.4,,80.8,-14,-355,2,1019.65,81.6,0
"2021-08-06 21:07:39+00",12.6,15.6,,79.3,129,-515,-4,1019.53,80.9,0
"2021-08-06 21:12:39+00",15.5,17.5,,77.8,109,-660,-26,1019.64,79.3,0
"2021-08-06 21:17:39+00",12.2,16.2,,77.8,1,-530,-18,1019.69,78.8,0
"2021-08-06 21:22:39+00",11.2,15.2,,78.9,-76,-465,7,1019.79,79.8,0
"2021-08-06 21:27:39+00",9.8,15.8,,79.3,-52,-383,34,1019.73,80.1,0
"2021-08-06 21:32:39+00",8.9,17.9,,79.6,-17,-390,22,1019.73,80.4,0
"2021-08-06 21:37:39+00",11.8,15.8,,78.7,6,-509,-19,1019.78,79.8,0
"2021-08-06 21:42:39+00",9.3,12.3,,78.3,-35,-399,5,1019.77,79.3,0
"2021-08-06 21:47:39+00",9.7,13.7,,78.4,-38,-383,15,1019.86,79.3,0
"2021-08-06 21:52:39+00",6.9,9.9,,78.3,-28,-297,48,1019.83,79,0
"2021-08-06 21:57:39+00",10.0,14.0,,78,-66,-412,14,1019.78,78.9,0
"2021-08-06 22:02:39+00",10.7,15.7,,78,-76,-434,7,1019.86,78.8,0
"2021-08-06 22:07:39+00",18.2,20.2,,77.7,-265,-743,-7,1019.84,78.6,0
"2021-08-06 22:12:39+00",16.0,19.0,,77.5,-185,-688,-27,1019.78,78.3,0
"2021-08-06 22:17:39+00",14.2,17.2,,77.6,-188,-600,-5,1019.84,78.4,0
"2021-08-06 22:22:39+00",14.5,18.5,,77.4,-141,-606,-3,1019.72,78.1,0
"2021-08-06 22:27:39+00",15.6,18.6,,77.2,-212,-664,-4,1019.76,77.8,0
"2021-08-06 22:32:39+00",15.4,18.4,,77,-193,-637,0,1019.68,77.7,0
"2021-08-06 22:37:39+00",10.3,15.3,,77.1,-84,-409,26,1019.7,77.7,0
"2021-08-06 22:42:39+00",10.5,15.5,,77.1,-87,-442,18,1019.59,77.6,0
"2021-08-06 22:47:39+00",12.9,16.9,,77,-133,-549,24,1019.62,77.4,0
"2021-08-06 22:52:39+00",10.3,14.3,,77,-107,-420,21,1019.7,77.4,0
"2021-08-06 22:57:39+00",16.0,19.0,,76.4,-213,-678,0,1019.67,76.9,0
"2021-08-06 23:02:39+00",15.7,17.7,,76.1,-210,-639,-9,1019.67,76.5,0
"2021-08-06 23:07:39+00",14.3,18.3,,75.9,-193,-580,0,1019.69,76,0
"2021-08-06 23:12:39+00",12.7,15.7,,75.8,-135,-540,-7,1019.65,75.8,0
"2021-08-06 23:17:39+00",11.8,16.8,,75.7,-110,-486,30,1019.6,75.6,0
"2021-08-06 23:22:39+00",11.3,14.3,,75.6,-146,-462,9,1019.72,75.6,0
"2021-08-06 23:27:39+00",15.7,17.7,,75.5,-197,-663,-16,1019.68,75.4,0
"2021-08-06 23:32:39+00",13.6,16.6,,75.4,-177,-582,-10,1019.69,75.3,0
"2021-08-06 23:37:39+00",15.5,19.5,,75.3,-222,-641,-9,1019.71,75.2,0
"2021-08-06 23:42:39+00",14.6,16.6,,75.3,-220,-589,-10,1019.65,75.1,0
"2021-08-06 23:47:39+00",16.4,19.4,,75.2,-284,-666,-8,1019.73,75,0
"2021-08-06 23:52:39+00",15.1,19.1,,75.1,-297,-614,9,1019.75,74.9,0
"2021-08-06 23:57:39+00",15.0,17.0,,75.1,-279,-611,-12,1019.86,74.7,0
